Location: Belfast
(54.5830°N, 5.9330°W)
Time: 01:48:06
(UTC+01:00)

ISS - Pass Details

Date: 30 March 2017
Orbit: 399 x 409 km, 51.6° (Epoch: 30 March)

Event Time Altitude Azimuth Distance (km) Brightness Sun altitude
Rises 22:58:12 0° 257° (WSW) 2,317 0.4 -23.6°
Reaches altitude 10° 23:00:19 10° 252° (WSW) 1,460 -0.8 -23.8°
Enters shadow 23:00:41 13° 250° (WSW) 1,312 -1.0 -23.8°
